軌道要素
Epoch 2023 Feb. 25.0 TT = JDT 2460000.5
T 2022 Oct. 25.22024 TT Rudenko
q 0.6325576 (2000.0) P Q
z +0.0023757 Peri. 78.37540 -0.41427167 -0.58945593
+/-0.0000446 Node 60.40339 +0.11776348 -0.79025266
e 0.9984972 Incl. 52.89628 +0.90250249 -0.16745881
>From 298 observations 2022 Sept. 14-Oct. 30, mean residual 0".7.
|